Wind_Speed
95 94 93 92 93 95 98 99 99 97 95 94 96 98 99 99 98 98 98 98 97 96 95 93 92 92 91 89 87 87 88 90 91 91 90 89 89 90 91 92 91 91 93 94 93 93 94 96 99 100 100 101 102 102 102 104 109 114 119 123 127 129 131
92 90 89 89 91 93 96 98 98 96 93 91 92 95 96 96 95 94 94 94 94 94 93 91 90 90 90 88 85 84 86 88 88 87 87 86 87 88 89 89 89 89 90 92 92 90 91 94 97 98 98 99 101 101 102 103 108 113 118 122 126 129 131
90 89 88 88 89 91 93 95 96 94 91 88 89 91 92 92 92 90 90 90 91 90 89 88 87 87 88 86 83 82 84 86 86 85 85 85 86 86 87 88 87 86 87 90 90 88 89 92 95 96 96 97 99 100 101 103 107 112 117 121 125 128 131
90 88 87 86 87 88 91 93 93 92 89 86 87 88 89 88 88 87 87 87 87 86 85 84 83 83 84 84 81 80 81 83 85 84 84 84 85 86 86 86 86 85 85 87 88 86 87 90 92 93 94 95 98 99 100 103 107 111 116 120 124 127 130
90 88 85 84 85 86 89 90 90 89 86 84 85 86 86 85 85 84 84 83 82 81 80 79 79 80 81 81 79 78 79 81 82 83 82 83 84 85 86 85 84 84 84 85 86 85 85 88 90 91 92 93 96 98 100 102 106 110 114 118 122 126 129
91 89 87 84 83 85 87 88 87 85 83 82 83 84 83 82 82 81 80 79 78 77 76 75 76 77 78 78 77 76 77 78 80 81 81 82 83 84 84 83 82 82 83 84 86 85 84 86 87 88 89 91 93 97 99 101 105 109 113 116 120 124 127
89 88 87 85 84 84 86 86 84 83 81 80 81 82 81 80 79 77 76 75 74 73 72 72 73 74 75 75 75 74 74 76 78 78 79 80 81 82 81 81 81 81 81 83 85 84 83 84 85 86 87 88 91 96 98 101 104 107 111 114 118 121 125
87 85 83 83 83 83 84 83 82 80 79 78 78 78 78 77 75 74 73 72 71 70 70 69 70 71 72 72 71 71 71 73 75 76 77 78 79 79 79 79 80 80 81 82 84 83 82 82 83 84 85 86 90 94 97 99 102 105 108 112 115 119 122
88 85 81 79 79 81 81 80 79 78 77 75 75 75 75 73 71 70 70 69 68 67 67 67 67 68 69 68 68 67 68 70 72 73 74 75 76 76 77 78 79 79 80 81 82 82 81 80 81 83 83 84 88 92 95 98 100 103 106 109 113 117 120
85 84 81 77 75 76 78 77 76 76 75 73 71 71 70 69 67 67 67 66 66 66 65 65 66 66 66 65 64 64 65 67 69 70 71 73 74 74 75 77 77 77 78 80 80 80 79 78 80 81 81 83 87 90 94 96 98 100 103 106 111 114 117
81 79 78 75 71 71 73 75 74 73 73 70 67 66 66 65 64 64 64 63 64 64 64 64 64 65 63 62 62 62 63 65 67 68 69 70 71 72 73 75 75 76 77 78 79 79 78 78 80 81 80 82 85 89 92 94 96 98 100 104 108 111 114
78 75 75 73 69 67 69 72 72 71 70 67 64 62 62 61 62 62 62 62 62 62 62 62 63 63 61 61 60 60 61 63 65 66 68 68 69 70 71 73 73 74 75 76 77 77 77 78 80 80 79 81 84 87 90 92 94 96 98 101 105 108 111
75 73 72 70 66 64 65 68 70 69 67 64 61 60 58 58 60 61 60 61 61 60 60 61 61 61 60 59 59 59 60 62 64 65 66 67 68 68 69 71 72 73 73 74 75 76 76 78 79 79 79 80 83 86 88 90 92 94 95 98 101 105 109
72 70 69 67 63 62 63 65 67 66 63 60 58 58 56 55 57 60 60 60 59 58 58 59 59 59 58 58 58 58 59 61 62 64 65 66 66 67 68 70 71 72 72 73 75 76 77 77 78 78 78 79 83 85 86 88 90 92 93 95 98 102 106
70 68 66 64 61 60 61 63 64 62 60 58 56 56 55 53 56 60 60 58 56 55 56 57 57 57 57 57 57 57 58 59 60 61 62 63 64 66 67 69 70 71 71 72 74 75 76 76 76 76 77 79 83 84 85 87 89 91 92 93 95 99 103
67 65 64 61 59 58 59 60 60 59 57 56 54 53 53 53 55 59 59 56 54 54 55 55 56 55 56 56 56 56 57 57 58 58 59 61 63 64 66 67 69 70 70 71 73 74 75 74 75 76 77 80 83 84 85 86 88 89 91 91 93 96 100
65 62 60 59 57 56 57 57 56 55 55 54 52 51 51 52 54 57 57 55 52 53 54 54 54 53 54 54 54 55 55 55 56 56 57 59 61 63 65 67 68 69 70 71 73 74 74 74 75 77 79 81 84 84 84 85 87 88 90 90 91 93 97
63 60 58 57 55 54 55 55 53 52 53 52 50 50 50 51 53 55 56 54 52 51 52 52 52 52 52 53 53 53 53 53 54 55 56 58 60 62 65 67 68 69 70 71 72 72 73 74 76 79 80 82 84 84 84 84 86 87 89 90 90 91 94
60 58 56 55 53 52 52 52 51 50 51 50 49 49 49 50 52 54 54 54 52 49 49 50 51 51 52 53 52 51 51 52 53 54 56 57 59 62 66 67 67 67 69 70 71 71 73 74 77 79 81 82 83 83 83 84 85 87 88 88 89 89 91
58 56 55 53 51 51 50 50 49 48 48 48 48 47 48 49 51 52 53 52 50 47 46 50 51 51 51 51 49 48 49 51 52 54 55 57 59 63 65 64 63 65 68 69 69 71 72 74 76 79 80 81 82 83 83 83 84 86 87 87 87 88 89
56 55 54 52 49 49 49 48 47 46 47 47 46 46 47 48 50 51 51 50 48 45 46 50 51 50 49 48 47 47 49 50 53 54 55 57 60 61 60 59 61 64 66 67 68 70 72 74 76 79 80 81 82 82 82 83 83 84 85 85 86 87 88
54 53 52 50 48 47 47 46 45 45 45 46 45 45 46 48 48 49 48 48 46 45 46 48 49 48 47 46 46 47 49 51 53 54 55 57 58 56 55 57 60 62 63 66 69 70 72 74 76 78 80 80 81 81 82 81 81 81 82 84 85 86 88
52 52 50 48 46 45 45 44 44 43 44 44 44 44 45 46 47 46 46 46 46 45 45 46 47 46 45 45 46 47 49 51 53 54 54 54 53 53 55 57 58 60 64 67 69 70 72 73 75 77 78 79 79 80 79 78 77 78 81 83 84 86 87
51 49 48 46 45 43 43 43 42 42 42 43 43 43 44 45 45 45 45 46 45 43 43 44 45 44 44 45 46 47 49 50 52 52 51 50 51 52 54 56 58 61 65 67 68 70 71 72 74 75 77 77 78 77 76 75 76 78 81 82 83 85 86
49 47 46 44 43 42 41 41 41 41 41 41 42 42 43 44 44 43 44 44 43 41 42 43 43 43 43 45 46 46 47 49 50 50 49 48 50 52 54 56 59 62 64 66 67 69 70 71 72 74 75 75 75 74 74 76 77 79 80 81 82 83 85
47 45 44 42 41 40 39 40 40 40 40 40 40 41 41 42 42 42 42 42 41 40 40 41 42 42 43 44 45 45 46 48 49 48 47 48 51 53 55 58 60 62 64 66 66 67 68 69 70 71 72 73 73 74 75 76 77 78 78 79 80 81 83
44 43 42 41 39 39 38 39 39 39 38 38 39 39 40 40 40 39 39 39 38 38 38 39 41 42 42 42 42 43 45 46 47 47 47 49 52 54 56 58 60 62 64 64 64 64 65 66 67 68 70 72 73 74 75 75 75 76 76 77 78 80 81
42 41 40 39 38 38 37 37 38 37 37 37 38 38 38 38 37 37 37 37 36 37 37 38 39 40 40 40 41 43 45 46 47 47 49 51 53 55 57 58 60 62 62 62 61 61 62 63 65 67 69 71 73 73 73 73 74 74 75 76 77 78 79
41 39 38 37 37 37 37 36 36 36 35 36 36 36 36 36 35 35 35 35 35 36 36 37 38 39 39 39 41 44 46 47 48 49 51 53 54 56 57 58 60 60 60 59 58 58 59 61 63 66 68 70 71 72 72 72 73 73 74 75 76 76 77
39 37 36 36 35 36 36 35 35 35 34 34 34 34 34 34 34 33 33 34 34 35 36 37 38 39 39 40 42 44 46 46 48 49 51 53 54 56 57 58 59 58 57 56 56 57 58 60 61 64 66 69 70 70 71 71 72 72 72 73 74 74 75
37 36 35 35 35 35 35 34 34 34 33 33 33 33 32 32 32 32 32 33 33 34 35 36 37 39 40 41 42 43 45 47 48 50 51 53 54 55 56 55 55 54 53 54 55 56 57 58 60 63 66 68 68 69 69 70 70 70 71 72 72 73 73
36 35 34 34 34 34 33 33 33 32 32 32 32 31 31 31 31 31 32 33 33 34 35 36 38 40 41 42 43 44 45 48 50 51 52 53 54 54 53 52 51 51 52 53 54 55 56 58 60 62 64 66 66 67 67 68 69 69 70 70 70 71 72
34 33 33 33 33 33 32 32 31 31 31 31 31 31 31 31 31 31 32 33 34 34 35 37 40 42 43 44 44 44 46 48 50 52 52 53 52 51 50 50 50 51 52 53 54 54 55 57 59 61 62 64 65 65 66 67 67 68 68 68 69 70 71
33 32 32 32 32 32 31 31 30 30 30 30 30 30 30 30 30 30 31 32 33 34 36 38 41 43 44 45 45 46 47 49 51 51 51 51 50 49 49 50 51 52 53 52 52 53 54 56 57 59 61 62 63 64 64 65 65 66 66 67 68 69 70
32 31 31 31 31 31 30 30 29 29 29 29 29 29 29 29 29 29 29 30 31 33 36 39 41 43 45 46 47 48 49 50 51 51 51 50 50 49 49 50 50 51 50 51 52 54 55 56 57 58 60 61 62 62 62 62 63 64 65 66 67 68 69
31 31 30 30 30 30 29 28 28 27 27 28 28 28 28 28 28 28 28 30 32 34 36 39 41 43 44 45 46 47 48 49 49 50 50 50 49 49 49 49 49 49 50 52 53 54 55 55 56 58 59 59 60 60 60 60 61 63 64 65 66 67 68
Wind_Direction
287 285 284 283 282 281 280 278 276 275 273 272 271 271 270 269 268 268 268 268 268 268 266 265 265 264 263 262 260 259 258 257 256 255 254 253 252 251 250 250 248 247 247 245 243 241 241 240 240 239 237 236 235 233 231 229 226 226 225 224 224 224 223
288 286 285 284 283 282 281 279 278 276 274 272 271 271 270 270 269 268 267 267 267 266 266 265 264 263 263 262 260 258 257 256 255 254 253 252 251 250 249 248 247 246 246 245 243 241 240 239 239 238 236 235 234 232 230 228 226 225 224 224 223 223 222
289 288 286 285 284 283 281 280 278 277 276 274 273 271 270 270 269 268 267 266 266 265 265 264 263 262 262 261 259 257 255 254 253 252 251 250 249 248 248 247 246 245 244 244 243 240 239 238 238 237 236 234 234 232 230 228 226 224 224 223 223 222 222
290 288 287 286 284 283 281 280 278 277 277 276 274 272 271 271 270 269 268 267 266 265 265 264 263 262 261 260 258 255 253 252 252 251 249 249 248 247 246 245 245 244 243 243 242 240 238 237 237 236 235 233 233 231 229 227 225 224 223 223 222 222 221
292 290 288 286 285 283 281 280 279 278 278 277 275 273 272 271 270 269 268 267 267 266 265 264 262 261 260 259 257 254 252 250 250 249 247 247 246 245 245 244 244 243 242 242 242 239 237 237 236 235 234 233 232 231 228 226 224 224 223 222 222 222 221
294 292 290 288 286 284 282 280 279 279 278 277 275 274 273 272 271 270 269 268 267 266 264 263 261 260 258 257 255 253 251 249 248 247 246 245 244 244 243 243 242 242 241 240 240 239 237 236 236 235 233 232 230 230 228 226 224 223 222 222 222 221 221
293 292 291 289 287 285 283 281 280 279 278 276 275 274 273 272 271 271 270 269 268 266 264 262 260 258 257 256 254 252 250 248 248 246 245 244 243 242 242 241 241 240 239 239 239 238 236 235 235 234 232 231 230 229 227 225 224 223 222 222 221 221 221
293 291 290 289 287 285 283 282 281 279 278 276 274 274 273 272 272 271 270 269 267 265 263 261 259 258 256 255 253 251 249 248 247 246 244 243 242 241 240 240 239 238 237 237 237 237 236 234 234 233 231 230 229 228 227 225 223 222 222 221 221 221 220
294 292 290 288 286 285 283 282 280 279 277 275 274 273 272 272 272 271 269 268 266 265 263 261 259 257 256 254 252 250 248 247 246 245 244 242 241 240 239 238 237 236 236 236 236 235 234 233 233 232 230 229 229 228 226 225 224 222 221 221 221 220 220
293 291 289 286 285 284 283 281 280 278 277 275 274 273 272 272 270 269 268 266 265 263 262 260 258 257 255 254 252 250 247 246 245 244 242 241 240 239 238 237 236 235 234 234 234 234 233 232 232 231 229 228 228 227 226 225 224 222 221 220 221 220 220
291 290 288 286 284 282 282 280 279 277 276 275 274 272 272 271 269 267 266 264 263 262 260 259 257 256 255 253 251 248 246 244 243 242 241 240 239 238 237 236 235 234 233 233 233 233 232 231 231 230 228 227 227 227 227 226 224 222 221 220 220 220 220
290 289 287 285 283 282 281 279 278 276 275 275 274 272 271 269 268 266 264 263 261 260 259 257 256 256 254 252 250 247 244 243 241 241 240 239 238 237 236 235 234 233 232 232 232 232 231 230 230 229 228 227 227 227 227 226 225 223 221 220 219 220 220
290 288 286 285 284 282 280 278 277 276 275 275 273 271 269 268 267 265 263 261 260 259 258 257 256 255 253 251 249 246 243 241 240 239 238 237 236 235 234 234 233 232 231 231 231 231 230 229 229 229 227 227 227 227 227 227 226 224 222 220 219 219 220
290 288 287 285 284 282 279 277 276 275 275 274 272 270 268 267 266 264 262 260 260 259 257 256 255 254 253 251 248 246 243 241 239 238 237 236 235 234 232 232 231 231 230 229 229 229 229 228 228 228 227 226 227 227 227 227 226 225 223 220 219 219 219
290 288 287 286 284 282 279 276 275 275 274 273 271 269 268 266 264 263 262 260 259 258 256 255 254 253 252 250 248 246 243 241 239 238 237 236 235 233 231 230 230 230 229 228 228 228 228 227 227 227 226 226 227 227 226 226 226 225 224 221 219 219 219
290 289 287 286 284 281 278 276 274 274 273 271 270 268 267 265 263 262 261 260 258 257 255 254 253 252 251 249 248 246 244 242 240 238 236 235 234 233 231 230 229 228 228 227 227 227 227 226 226 226 226 225 226 226 226 225 226 225 224 222 220 219 219
290 289 287 285 283 280 277 275 274 273 272 271 269 267 265 263 262 261 261 259 257 255 255 254 253 252 250 249 247 245 243 241 239 237 235 233 232 231 230 229 228 227 226 226 226 225 225 225 225 225 224 224 225 225 225 225 225 225 225 223 221 219 218
291 289 287 285 283 280 278 276 274 273 271 270 268 266 264 262 261 260 259 258 256 255 254 254 253 251 249 248 246 244 242 240 238 236 233 231 230 230 229 227 226 225 225 225 225 224 224 224 224 224 224 224 224 225 224 224 224 224 225 224 222 220 219
291 290 288 285 283 281 278 276 274 272 271 269 267 265 263 261 259 259 258 258 256 255 254 254 252 250 248 247 245 243 240 238 236 234 232 230 229 228 228 227 225 224 224 225 224 223 223 223 223 224 223 223 223 224 223 223 223 223 224 224 223 221 219
292 290 288 286 284 281 278 276 273 271 270 268 266 264 262 259 258 257 257 257 256 255 253 252 251 249 247 246 244 241 238 236 234 232 230 229 227 227 227 227 225 224 224 224 223 223 223 222 223 223 223 223 223 223 223 222 222 223 223 224 223 222 221
292 290 288 286 284 281 278 276 273 271 269 267 265 263 261 259 258 257 257 257 257 255 251 250 249 248 246 245 242 239 235 233 232 230 228 227 227 227 227 226 225 224 223 223 222 222 222 221 222 222 223 222 222 222 222 222 221 222 222 223 223 223 222
292 290 288 286 283 281 278 275 273 270 268 266 264 262 260 259 258 257 257 256 255 253 250 249 249 247 245 243 239 236 233 231 231 229 227 226 227 226 225 225 224 223 222 222 221 221 221 220 221 221 222 222 222 222 222 222 221 221 222 223 223 223 223
291 289 287 285 283 280 278 275 272 269 266 265 263 261 259 258 257 257 256 255 253 252 250 248 247 245 243 240 236 233 231 230 230 229 227 226 225 224 223 223 222 222 221 221 221 220 220 220 220 221 221 222 222 222 222 222 221 220 221 222 223 223 223
290 288 286 284 282 280 277 274 271 268 265 264 262 260 259 257 256 255 254 254 252 251 248 247 245 243 240 237 234 231 230 229 229 229 226 224 223 222 221 221 221 220 220 220 220 220 219 219 220 220 221 221 222 222 222 221 220 220 220 221 222 223 223
289 287 285 284 281 279 276 273 270 267 265 262 261 259 258 257 256 254 253 253 252 250 247 245 243 240 237 234 232 230 229 228 228 227 225 222 221 220 219 219 219 220 220 220 219 219 219 219 219 220 220 221 221 221 221 220 220 220 220 221 222 223 223
288 287 285 283 281 278 275 272 270 267 264 262 260 259 257 256 255 253 253 252 251 248 246 244 242 238 235 233 231 230 228 227 227 225 223 220 219 218 217 217 218 219 220 220 219 219 218 218 218 219 219 220 220 220 220 220 220 221 221 221 222 222 223
288 287 285 283 280 278 274 271 269 266 264 262 260 258 257 256 255 253 252 252 250 247 244 242 240 238 235 232 231 229 228 227 226 223 221 219 218 217 217 217 217 219 220 220 219 219 218 218 218 218 218 219 219 219 220 220 220 221 222 222 222 222 223
288 286 284 282 280 277 274 271 269 266 263 261 259 258 256 255 254 252 251 249 247 244 242 240 238 236 233 230 228 227 226 224 222 220 219 218 217 217 217 217 218 219 220 220 219 219 218 217 217 217 217 218 218 219 220 220 220 221 222 222 222 222 222
288 286 284 281 279 276 273 271 269 266 263 261 259 257 256 254 252 251 249 246 243 241 239 237 236 234 231 227 225 224 224 222 220 219 218 218 217 217 217 217 218 219 220 220 219 218 218 217 216 216 217 217 218 219 219 220 221 221 222 223 223 223 223
288 286 283 280 277 275 273 271 269 266 263 260 258 256 254 252 251 249 246 243 240 238 236 234 233 231 229 225 223 222 223 222 221 220 219 219 218 218 217 218 219 219 220 220 219 218 217 217 216 216 217 217 218 218 219 220 221 222 222 223 224 224 223
287 285 282 279 276 274 272 271 268 266 263 260 257 254 252 250 248 246 243 240 237 235 233 232 230 229 228 225 223 221 220 221 221 220 220 219 219 219 219 220 220 220 220 220 219 218 217 216 215 215 216 217 217 218 219 220 221 222 222 223 224 224 224
286 284 281 278 276 274 272 270 268 266 263 259 256 253 251 248 245 242 239 237 234 232 230 228 227 226 225 224 222 220 219 219 220 220 220 220 220 220 220 220 220 221 220 220 220 219 217 216 215 215 216 217 217 218 218 219 220 222 222 223 223 224 225
286 283 280 277 275 273 271 269 267 264 261 257 254 252 249 246 243 240 237 234 232 230 228 226 225 224 223 223 221 219 218 219 220 221 221 221 220 220 220 220 220 220 220 220 219 218 217 216 215 216 216 217 217 218 218 219 220 221 222 223 223 224 225
285 282 279 276 274 272 270 268 266 263 260 256 252 250 248 246 243 240 237 234 232 230 227 225 224 223 222 222 220 219 218 219 220 221 221 221 221 220 219 219 219 220 220 219 219 218 217 216 216 216 216 216 217 218 219 219 220 221 221 222 223 223 224
283 280 278 275 272 270 268 266 265 262 259 255 252 249 247 246 243 240 237 234 232 230 228 226 224 223 222 221 220 219 219 219 220 221 221 221 221 220 219 219 219 219 219 219 219 218 217 216 216 216 217 217 217 218 219 219 220 220 221 221 222 223 224
282 279 276 273 270 268 266 265 263 260 256 252 248 246 244 243 242 238 235 232 230 228 227 225 224 224 223 222 222 221 221 221 221 221 222 221 220 219 219 219 218 218 218 218 218 218 217 216 216 216 217 217 218 218 218 219 220 220 221 221 222 223 223
Height
10044 10041 10037 10033 10028 10021 10014 10009 10006 10006 10007 10007 10005 10000 9998 9999 9998 9999 9999 9997 9998 10001 10002 10005 10007 10008 10009 10012 10018 10022 10022 10023 10026 10029 10034 10039 10042 10046 10050 10052 10058 10065 10065 10067 10078 10086 10091 10096 10099 10104 10112 10119 10126 10134 10141 10148 10156 10163 10172 10181 10190 10201 10212
10024 10021 10017 10013 10009 10002 9994 9988 9985 9985 9987 9989 9987 9982 9979 9979 9980 9982 9982 9981 9982 9983 9984 9988 9991 9991 9991 9993 10000 10005 10005 10006 10009 10013 10018 10022 10025 10029 10032 10036 10041 10048 10050 10050 10058 10069 10075 10079 10082 10088 10096 10103 10108 10116 10125 10132 10139 10146 10155 10164 10174 10185 10196
10004 10001 9997 9994 9990 9983 9976 9970 9966 9965 9968 9969 9968 9964 9962 9961 9961 9963 9964 9964 9965 9966 9968 9971 9974 9974 9973 9976 9983 9988 9989 9989 9992 9997 10002 10005 10009 10012 10016 10020 10026 10032 10035 10034 10041 10053 10060 10063 10067 10072 10081 10087 10092 10099 10108 10116 10123 10131 10139 10148 10158 10169 10180
9984 9982 9979 9975 9971 9965 9959 9952 9948 9948 9950 9951 9949 9946 9945 9944 9944 9946 9947 9947 9948 9949 9952 9954 9956 9957 9956 9959 9966 9971 9972 9974 9976 9981 9986 9989 9992 9996 10000 10005 10011 10017 10020 10021 10026 10037 10044 10048 10052 10057 10065 10072 10076 10082 10092 10100 10107 10115 10123 10132 10142 10153 10164
9963 9961 9960 9957 9953 9947 9941 9935 9932 9932 9933 9933 9930 9928 9927 9928 9928 9929 9930 9931 9932 9934 9936 9938 9939 9940 9940 9943 9949 9953 9956 9958 9961 9964 9970 9973 9976 9981 9985 9991 9997 10002 10006 10008 10011 10020 10029 10033 10037 10043 10050 10056 10062 10067 10075 10084 10093 10101 10108 10117 10127 10136 10147
9944 9940 9939 9938 9934 9929 9923 9919 9917 9916 9917 9916 9912 9910 9910 9911 9912 9913 9914 9915 9916 9918 9920 9923 9923 9923 9924 9928 9932 9936 9939 9942 9945 9949 9954 9958 9961 9966 9971 9977 9984 9988 9992 9995 9997 10004 10014 10019 10023 10029 10036 10041 10047 10053 10060 10070 10078 10086 10094 10102 10112 10122 10132
9929 9925 9920 9917 9915 9911 9906 9903 9902 9900 9900 9899 9897 9895 9895 9896 9897 9898 9899 9900 9901 9902 9904 9906 9907 9908 9909 9912 9916 9920 9924 9927 9930 9934 9939 9944 9947 9952 9958 9964 9970 9974 9978 9981 9983 9990 9999 10006 10010 10016 10022 10028 10033 10039 10046 10055 10064 10071 10080 10089 10098 10108 10117
9912 9910 9906 9901 9897 9894 9890 9887 9886 9885 9883 9883 9882 9881 9881 9882 9883 9884 9885 9885 9886 9887 9889 9890 9892 9893 9895 9898 9901 9906 9911 9914 9916 9921 9925 9930 9934 9939 9946 9951 9955 9960 9965 9967 9971 9978 9986 9993 9998 10003 10009 10015 10019 10025 10033 10041 10049 10058 10067 10076 10084 10093 10103
9893 9891 9890 9888 9883 9877 9874 9872 9871 9869 9868 9868 9868 9868 9868 9869 9871 9871 9870 9871 9872 9873 9874 9876 9878 9879 9881 9884 9888 9893 9897 9900 9903 9908 9912 9916 9921 9927 9933 9937 9941 9947 9952 9955 9959 9965 9973 9980 9985 9989 9996 10002 10006 10012 10020 10028 10036 10045 10055 10063 10070 10079 10090
9879 9875 9872 9873 9871 9865 9860 9857 9856 9854 9852 9854 9855 9856 9856 9857 9858 9857 9857 9858 9858 9859 9860 9862 9864 9866 9868 9872 9876 9880 9884 9887 9890 9895 9899 9903 9909 9914 9919 9923 9928 9934 9939 9943 9948 9953 9961 9969 9972 9977 9984 9990 9994 10000 10007 10015 10023 10033 10043 10050 10057 10066 10077
9866 9862 9857 9857 9858 9854 9848 9843 9841 9840 9839 9840 9843 9844 9844 9844 9844 9844 9844 9845 9845 9846 9847 9849 9851 9853 9856 9860 9864 9867 9871 9874 9877 9882 9886 9891 9897 9902 9906 9911 9916 9922 9927 9932 9936 9942 9950 9956 9959 9965 9973 9978 9982 9988 9995 10002 10011 10021 10030 10037 10044 10054 10064
9852 9849 9845 9843 9843 9841 9836 9830 9826 9826 9826 9828 9830 9832 9832 9831 9830 9831 9831 9832 9832 9834 9835 9837 9839 9841 9845 9848 9851 9855 9859 9862 9865 9870 9874 9880 9885 9890 9895 9899 9904 9910 9915 9921 9925 9931 9939 9944 9947 9954 9962 9966 9971 9977 9983 9991 10000 10008 10017 10025 10034 10044 10053
9838 9834 9831 9830 9829 9827 9823 9817 9813 9813 9815 9817 9819 9819 9820 9821 9818 9816 9818 9819 9820 9822 9824 9826 9827 9830 9833 9836 9840 9844 9847 9850 9854 9858 9863 9868 9874 9879 9883 9887 9892 9898 9904 9910 9915 9921 9927 9931 9937 9944 9951 9956 9961 9966 9972 9980 9988 9996 10005 10015 10024 10033 10042
9823 9821 9818 9816 9816 9814 9809 9805 9801 9802 9804 9806 9807 9807 9809 9810 9806 9803 9804 9807 9808 9811 9813 9815 9817 9820 9822 9825 9829 9832 9836 9839 9843 9848 9852 9858 9863 9868 9872 9876 9880 9886 9893 9899 9904 9908 9914 9920 9927 9934 9941 9947 9951 9955 9962 9970 9977 9984 9994 10005 10014 10022 10031
9809 9807 9804 9803 9803 9801 9796 9792 9791 9791 9793 9794 9795 9796 9797 9798 9795 9791 9792 9796 9799 9801 9802 9804 9806 9809 9812 9815 9818 9821 9825 9829 9833 9838 9844 9848 9853 9857 9861 9865 9869 9875 9881 9888 9892 9897 9903 9912 9919 9926 9932 9937 9939 9945 9952 9959 9965 9973 9983 9993 10002 10011 10020
9796 9794 9792 9791 9790 9788 9784 9781 9780 9781 9782 9783 9784 9785 9786 9785 9783 9780 9781 9785 9789 9790 9792 9794 9796 9799 9801 9804 9808 9811 9815 9819 9824 9830 9835 9839 9843 9847 9851 9855 9859 9864 9871 9877 9882 9887 9894 9903 9911 9916 9921 9925 9928 9934 9942 9948 9955 9962 9971 9981 9990 10000 10009
9783 9781 9780 9778 9777 9776 9773 9770 9771 9771 9771 9771 9773 9774 9774 9773 9771 9769 9770 9774 9778 9780 9782 9784 9787 9789 9792 9795 9798 9801 9805 9810 9815 9820 9825 9829 9832 9836 9841 9845 9848 9854 9860 9866 9871 9878 9886 9894 9900 9904 9908 9912 9916 9923 9931 9938 9945 9952 9960 9969 9979 9989 9998
9770 9769 9768 9766 9765 9764 9762 9760 9761 9761 9760 9761 9762 9763 9763 9762 9761 9760 9760 9764 9768 9771 9773 9775 9777 9780 9782 9784 9788 9792 9797 9802 9806 9811 9815 9819 9822 9826 9830 9833 9838 9845 9850 9855 9862 9870 9877 9883 9888 9891 9896 9901 9906 9913 9922 9929 9936 9942 9949 9957 9968 9978 9987
9759 9757 9755 9755 9754 9753 9751 9750 9751 9751 9750 9750 9751 9752 9752 9752 9751 9750 9751 9753 9758 9762 9765 9766 9767 9770 9772 9774 9779 9784 9788 9793 9797 9800 9804 9808 9813 9816 9817 9821 9830 9837 9841 9847 9854 9861 9867 9873 9877 9880 9886 9892 9898 9905 9912 9919 9926 9932 9938 9947 9957 9967 9976
9748 9745 9743 9743 9743 9742 9741 9740 9740 9741 9740 9740 9741 9742 9742 9741 9741 9741 9742 9744 9749 9754 9757 9756 9757 9760 9762 9765 9771 9776 9780 9784 9787 9790 9794 9799 9802 9803 9806 9815 9825 9830 9834 9840 9847 9852 9858 9863 9867 9871 9877 9883 9890 9897 9903 9910 9916 9922 9930 9939 9947 9956 9965
9737 9735 9732 9732 9733 9732 9731 9730 9730 9731 9730 9730 9731 9732 9731 9731 9732 9732 9734 9737 9741 9745 9746 9746 9747 9751 9754 9758 9763 9767 9771 9774 9776 9780 9786 9789 9790 9794 9803 9812 9818 9822 9827 9834 9839 9843 9849 9854 9857 9861 9867 9873 9881 9887 9893 9900 9907 9914 9923 9931 9938 9946 9953
9726 9724 9723 9722 9722 9722 9721 9720 9720 9721 9721 9720 9721 9722 9722 9722 9723 9724 9726 9729 9732 9734 9736 9737 9740 9743 9747 9751 9755 9759 9762 9764 9766 9771 9776 9779 9783 9791 9799 9804 9809 9815 9821 9825 9829 9834 9839 9844 9848 9852 9857 9864 9872 9878 9885 9892 9901 9909 9917 9923 9929 9935 9941
9716 9714 9713 9713 9712 9712 9711 9711 9711 9711 9711 9711 9711 9712 9713 9713 9714 9716 9718 9720 9722 9725 9727 9729 9732 9736 9740 9743 9746 9750 9753 9755 9758 9762 9768 9773 9780 9787 9791 9795 9801 9808 9811 9814 9819 9824 9830 9834 9839 9843 9850 9857 9864 9870 9878 9887 9897 9903 9908 9912 9918 9923 9929
9707 9705 9703 9703 9703 9703 9702 9701 9701 9701 9702 9702 9702 9703 9704 9704 9706 9709 9710 9711 9714 9717 9719 9721 9724 9728 9731 9734 9737 9741 9744 9748 9751 9755 9761 9769 9775 9779 9783 9788 9793 9797 9800 9805 9811 9816 9821 9826 9831 9836 9842 9849 9856 9865 9873 9882 9889 9892 9896 9901 9907 9913 9918
9697 9696 9695 9694 9694 9694 9693 9692 9692 9692 9693 9693 9694 9695 9695 9696 9698 9700 9702 9703 9706 9710 9711 9713 9716 9720 9723 9726 9729 9733 9737 9741 9744 9749 9756 9763 9768 9771 9776 9780 9783 9787 9792 9797 9802 9807 9813 9818 9823 9828 9835 9843 9851 9859 9866 9871 9876 9880 9885 9892 9898 9903 9909
9688 9687 9686 9685 9685 9685 9685 9684 9683 9684 9684 9685 9686 9687 9687 9688 9690 9693 9694 9696 9699 9702 9704 9706 9708 9711 9715 9719 9722 9727 9731 9734 9737 9743 9750 9756 9759 9763 9767 9770 9774 9779 9783 9787 9793 9799 9805 9811 9816 9823 9830 9837 9844 9850 9854 9859 9866 9871 9878 9884 9890 9895 9901
9680 9679 9677 9677 9676 9676 9676 9675 9675 9675 9676 9677 9678 9679 9680 9681 9683 9686 9688 9690 9693 9696 9698 9699 9701 9704 9708 9713 9717 9720 9724 9727 9732 9738 9744 9747 9750 9754 9758 9762 9766 9770 9774 9780 9786 9793 9799 9806 9812 9818 9824 9829 9834 9839 9845 9852 9859 9864 9870 9876 9881 9886 9892
9671 9670 9669 9668 9668 9668 9667 9667 9667 9667 9669 9669 9670 9672 9673 9675 9677 9679 9681 9683 9686 9688 9690 9692 9694 9697 9701 9706 9710 9713 9716 9720 9725 9731 9735 9738 9742 9746 9750 9754 9759 9763 9768 9774 9781 9788 9794 9800 9805 9810 9815 9820 9825 9832 9838 9845 9851 9856 9861 9867 9872 9878 9884
9662 9662 9661 9660 9660 9659 9659 9659 9659 9660 9661 9662 9663 9665 9667 9668 9670 9672 9674 9676 9679 9681 9683 9685 9687 9690 9694 9699 9703 9705 9708 9713 9717 9722 9726 9729 9734 9738 9743 9747 9751 9756 9762 9769 9776 9782 9788 9793 9798 9803 9808 9813 9819 9825 9831 9837 9843 9848 9853 9858 9863 9869 9876
9654 9654 9653 9652 9652 9652 9651 9652 9652 9653 9654 9656 9657 9658 9660 9662 9664 9666 9668 9670 9671 9674 9676 9678 9681 9684 9687 9692 9696 9699 9703 9706 9711 9715 9719 9723 9727 9731 9736 9740 9745 9751 9758 9764 9770 9775 9781 9786 9792 9797 9801 9806 9812 9818 9824 9829 9835 9841 9846 9850 9855 9861 9868
9646 9646 9645 9645 9644 9644 9644 9645 9645 9646 9648 9649 9650 9652 9653 9655 9657 9659 9661 9662 9664 9667 9670 9672 9675 9678 9681 9685 9690 9694 9697 9700 9704 9708 9712 9716 9721 9725 9730 9735 9742 9748 9754 9759 9763 9768 9774 9779 9784 9789 9793 9798 9805 9811 9817 9823 9828 9833 9838 9842 9847 9854 9859
9639 9638 9638 9637 9637 9637 9638 9638 9639 9640 9641 9642 9644 9645 9647 9648 9650 9652 9654 9655 9658 9660 9664 9667 9669 9672 9675 9678 9683 9687 9691 9694 9697 9701 9705 9710 9715 9720 9726 9732 9738 9743 9748 9752 9757 9762 9767 9772 9777 9782 9786 9792 9799 9804 9810 9816 9820 9825 9830 9835 9841 9846 9851
9632 9631 9631 9631 9631 9631 9631 9632 9633 9633 9634 9636 9637 9639 9640 9642 9643 9645 9647 9649 9651 9655 9658 9660 9663 9665 9668 9672 9677 9681 9685 9688 9691 9695 9699 9704 9710 9716 9722 9727 9732 9736 9740 9744 9749 9755 9760 9765 9770 9775 9780 9786 9791 9797 9802 9807 9813 9818 9823 9828 9833 9838 9843
9626 9625 9624 9624 9624 9624 9625 9626 9626 9627 9628 9630 9631 9633 9634 9635 9637 9639 9642 9644 9646 9649 9652 9655 9657 9660 9663 9666 9671 9675 9678 9682 9685 9689 9694 9699 9705 9711 9717 9721 9724 9728 9733 9738 9743 9748 9754 9759 9763 9768 9773 9779 9784 9789 9795 9800 9806 9811 9816 9821 9825 9830 9834
9619 9618 9618 9618 9618 9618 9618 9619 9621 9622 9623 9624 9626 9627 9628 9630 9632 9634 9637 9639 9641 9644 9646 9649 9652 9654 9658 9661 9665 9669 9672 9676 9680 9684 9689 9694 9700 9706 9710 9714 9718 9723 9728 9732 9737 9741 9746 9751 9757 9761 9767 9772 9777 9783 9788 9794 9799 9803 9808 9812 9817 9822 9826
9612 9612 9611 9612 9612 9612 9613 9614 9615 9616 9617 9619 9620 9621 9622 9624 9626 9628 9631 9633 9635 9638 9640 9643 9646 9650 9653 9657 9661 9664 9668 9672 9676 9680 9684 9689 9695 9700 9704 9708 9713 9717 9722 9725 9729 9734 9739 9745 9750 9755 9760 9765 9771 9776 9782 9787 9791 9795 9800 9804 9809 9814 9819